CW6981 Weather Reports


Display with metric or nautical units.
time (UTC)temp
F
wind
direction
speed
MPH
gust
MPH
rain 1hr
in
rain 24hr
in
rain mn
in
humidity
%
barometer
mb
20221204010544 43 92 0.0 1.0 0.00 0.00 0.00 45 1020.2
20221204010055 43 92 0.0 1.0 0.00 0.00 0.00 42 1020.1
20221204005529 43 92 0.0 0.0 0.00 0.00 0.00 41 1020.0
20221204005030 44 92 0.0 2.0 0.00 0.00 0.00 41 1020.0
20221204004541 44 92 1.0 2.0 0.00 0.00 0.00 41 1019.9
20221204004052 45 97 0.0 1.0 0.00 0.00 0.00 40 1019.9
20221204003543 45 97 0.0 1.0 0.00 0.00 0.00 39 1019.7
20221204003037 45 97 0.0 0.0 0.00 0.00 0.00 39 1019.6
20221204002527 46 97 0.0 1.0 0.00 0.00 0.00 38 1019.5
20221204002039 46 97 0.0 1.0 0.00 0.00 0.00 37 1019.6
20221204001532 47 97 0.0 1.0 0.00 0.00 0.00 37 1019.6
20221204001026 47 97 0.0 1.0 0.00 0.00 0.00 37 1019.6
20221204000539 48 97 0.0 0.0 0.00 0.00 0.00 36 1019.6
20221204000029 48 97 0.0 1.0 0.00 0.00 0.00 35 1019.7
20221203235542 49 97 0.0 1.0 0.00 0.00 0.00 35 1019.7
20221203235035 49 97 0.0 0.0 0.00 0.00 0.00 34 1019.5
20221203234526 50 97 0.0 0.0 0.00 0.00 0.00 34 1019.6
20221203234039 50 97 0.0 0.0 0.00 0.00 0.00 33 1019.6
20221203233534 50 97 0.0 0.0 0.00 0.00 0.00 33 1019.5
20221203233027 51 97 0.0 0.0 0.00 0.00 0.00 32 1019.5
20221203232601 51 97 0.0 0.0 0.00 0.00 0.00 31 1019.4
20221203232034 51 97 0.0 0.0 0.00 0.00 0.00 31 1019.3
20221203231526 51 97 0.0 0.0 0.00 0.00 0.00 31 1019.3
20221203231100 51 97 0.0 0.0 0.00 0.00 0.00 30 1019.1
20221203230557 52 97 0.0 2.0 0.00 0.00 0.00 31 1019.2
20221203230027 52 97 0.0 2.0 0.00 0.00 0.00 30 1019.1
20221203225522 52 96 0.0 2.0 0.00 0.00 0.00 30 1019.2
20221203225035 52 96 0.0 4.0 0.00 0.00 0.00 29 1019.2
20221203224548 52 99 1.0 4.0 0.00 0.00 0.00 29 1019.2
20221203224100 52 96 1.0 4.0 0.00 0.00 0.00 29 1019.2
20221203223552 52 104 2.0 6.0 0.00 0.00 0.00 29 1019.0
20221203223041 53 93 1.0 6.0 0.00 0.00 0.00 29 1019.0
20221203222534 53 100 2.0 6.0 0.00 0.00 0.00 29 1019.0
20221203222029 53 114 1.0 5.0 0.00 0.00 0.00 28 1018.9
20221203221540 54 104 1.0 4.0 0.00 0.00 0.00 29 1019.0
20221203221034 54 96 2.0 4.0 0.00 0.00 0.00 28 1019.0
20221203220529 54 103 0.0 6.0 0.00 0.00 0.00 28 1019.0
20221203220040 54 71 2.0 6.0 0.00 0.00 0.00 28 1019.1
20221203215535 54 100 1.0 4.0 0.00 0.00 0.00 28 1019.0
20221203215028 54 105 3.0 4.0 0.00 0.00 0.00 28 1019.1
20221203214555 54 114 1.0 3.0 0.00 0.00 0.00 28 1019.1
20221203214023 54 73 1.0 3.0 0.00 0.00 0.00 28 1019.0
20221203213539 54 95 1.0 4.0 0.00 0.00 0.00 27 1019.1
20221203213046 54 103 2.0 4.0 0.00 0.00 0.00 28 1019.1
20221203212537 54 112 0.0 4.0 0.00 0.00 0.00 27 1019.2
20221203212028 54 114 1.0 4.0 0.00 0.00 0.00 27 1019.3
20221203211536 54 92 0.0 4.0 0.00 0.00 0.00 27 1019.3
20221203211046 53 86 1.0 4.0 0.00 0.00 0.00 26 1019.3
20221203210557 53 79 1.0 4.0 0.00 0.00 0.00 26 1019.3
20221203210048 53 108 0.0 2.0 0.00 0.00 0.00 26 1019.5
20221203205538 53 101 0.0 4.0 0.00 0.00 0.00 26 1019.6
20221203205028 52 89 2.0 4.0 0.00 0.00 0.00 25 1019.5
20221203204534 52 106 1.0 2.0 0.00 0.00 0.00 26 1019.6
20221203204100 52 83 0.0 4.0 0.00 0.00 0.00 25 1019.6
20221203203534 52 83 0.0 4.0 0.00 0.00 0.00 25 1019.7
20221203203023 51 84 1.0 4.0 0.00 0.00 0.00 25 1019.7
20221203202530 51 85 0.0 2.0 0.00 0.00 0.00 25 1019.8
20221203202043 51 85 0.0 2.0 0.00 0.00 0.00 23 1019.9
20221203201531 51 85 0.0 2.0 0.00 0.00 0.00 23 1019.9
20221203201026 50 92 1.0 2.0 0.00 0.00 0.00 23 1020.0
20221203200602 50 97 0.0 4.0 0.00 0.00 0.00 21 1020.0
20221203200030 49 96 1.0 4.0 0.00 0.00 0.00 21 1020.0
20221203195542 49 97 1.0 2.0 0.00 0.00 0.00 20 1020.1
20221203195030 48 95 0.0 4.0 0.00 0.00 0.00 20 1020.1
20221203194536 48 82 0.0 4.0 0.00 0.00 0.00 21 1020.1
20221203194105 47 97 0.0 2.0 0.00 0.00 0.00 20 1020.2
20221203193536 47 97 0.0 2.0 0.00 0.00 0.00 21 1020.4
20221203193042 46 96 1.0 2.0 0.00 0.00 0.00 22 1020.4
20221203192532 46 201 0.0 2.0 0.00 0.00 0.00 23 1020.5
20221203192040 45 196 1.0 3.0 0.00 0.00 0.00 24 1020.4
20221203191548 45 239 1.0 3.0 0.00 0.00 0.00 26 1020.7
20221203191037 45 181 0.0 2.0 0.00 0.00 0.00 28 1020.7
20221203190529 44 183 0.0 2.0 0.00 0.00 0.00 30 1020.8
20221203190033 44 187 0.0 1.0 0.00 0.00 0.00 31 1020.9
20221203185539 43 220 0.0 1.0 0.00 0.00 0.00 32 1021.0
20221203185031 43 106 0.0 3.0 0.00 0.00 0.00 32 1021.0
20221203184600 42 106 1.0 3.0 0.00 0.00 0.00 33 1021.1
20221203184032 42 116 0.0 2.0 0.00 0.00 0.00 34 1021.2
20221203183545 41 116 1.0 2.0 0.00 0.00 0.00 35 1021.4
20221203183038 41 101 0.0 2.0 0.00 0.00 0.00 36 1021.4
20221203182531 41 243 1.0 2.0 0.00 0.00 0.00 36 1021.5
20221203182043 40 110 1.0 2.0 0.00 0.00 0.00 37 1021.5
20221203181534 39 119 0.0 2.0 0.00 0.00 0.00 38 1021.7
20221203181040 39 235 0.0 4.0 0.00 0.00 0.00 40 1021.8
20221203180532 38 95 2.0 5.0 0.00 0.00 0.00 41 1021.8
20221203180039 37 114 0.0 5.0 0.00 0.00 0.00 42 1021.9
20221203175541 36 243 1.0 4.0 0.00 0.00 0.00 44 1021.9
20221203175034 36 260 1.0 4.0 0.00 0.00 0.00 43 1022.0
20221203174526 35 214 1.0 4.0 0.00 0.00 0.00 47 1022.0
20221203174030 34 100 1.0 4.0 0.00 0.00 0.00 46 1022.2
20221203173601 33 101 1.0 4.0 0.00 0.00 0.00 48 1022.2
20221203173043 32 106 2.0 4.0 0.00 0.00 0.00 51 1022.3
20221203172530 30 104 1.0 2.0 0.00 0.00 0.00 53 1022.3
20221203172040 29 62 1.0 2.0 0.00 0.00 0.00 57 1022.4
20221203171527 28 57 0.0 1.0 0.00 0.00 0.00 61 1022.5
20221203171038 28 61 0.0 1.0 0.00 0.00 0.00 63 1022.5
20221203170528 27 60 0.0 1.0 0.00 0.00 0.00 68 1022.4
20221203170036 26 60 0.0 1.0 0.00 0.00 0.00 69 1022.5
20221203165541 26 60 0.0 1.0 0.00 0.00 0.00 70 1022.5
20221203165049 25 60 0.0 1.0 0.00 0.00 0.00 70 1022.6
20221203164536 25 60 0.0 0.0 0.00 0.00 0.00 71 1022.5
20221203164027 24 60 0.0 0.0 0.00 0.00 0.00 71 1022.6
20221203163539 24 60 0.0 1.0 0.00 0.00 0.00 73 1022.8
20221203163102 23 60 0.0 1.0 0.00 0.00 0.00 73 1022.8
20221203162533 22 60 0.0 0.0 0.00 0.00 0.00 74 1022.8
20221203162044 22 60 0.0 0.0 0.00 0.00 0.00 74 1022.8
20221203161605 21 60 0.0 1.0 0.00 0.00 0.00 74 1023.0
20221203161032 21 60 0.0 1.0 0.00 0.00 0.00 75 1023.0
20221203160544 20 60 0.0 0.0 0.00 0.00 0.00 76 1023.2
20221203160036 20 60 0.0 0.0 0.00 0.00 0.00 78 1023.3
20221203155526 19 60 0.0 0.0 0.00 0.00 0.00 79 1023.3
20221203155033 19 60 0.0 0.0 0.00 0.00 0.00 80 1023.3
20221203154545 18 60 0.0 0.0 0.00 0.00 0.00 81 1023.5
20221203154034 18 60 0.0 0.0 0.00 0.00 0.00 81 1023.5
20221203153528 17 60 0.0 0.0 0.00 0.00 0.00 82 1023.5
20221203153036 17 60 0.0 0.0 0.00 0.00 0.00 82 1023.6
20221203152528 16 60 0.0 0.0 0.00 0.00 0.00 82 1023.6
20221203152101 16 63 0.0 0.0 0.00 0.00 0.00 81 1023.7
20221203151532 15 63 0.0 0.0 0.00 0.00 0.00 81 1023.9
20221203151026 15 52 0.0 0.0 0.00 0.00 0.00 81 1023.9
20221203150537 15 52 0.0 0.0 0.00 0.00 0.00 80 1023.8
20221203150026 15 100 0.0 1.0 0.00 0.00 0.00 80 1023.9
20221203145534 14 123 0.0 1.0 0.00 0.00 0.00 80 1023.9
20221203145042 14 123 0.0 0.0 0.00 0.00 0.00 79 1023.9
20221203144528 14 123 0.0 0.0 0.00 0.00 0.00 79 1023.9
20221203144034 14 123 0.0 0.0 0.00 0.00 0.00 78 1024.1
20221203143605 14 123 0.0 0.0 0.00 0.00 0.00 78 1024.0
20221203143041 14 123 0.0 0.0 0.00 0.00 0.00 78 1024.3
20221203142531 14 123 0.0 0.0 0.00 0.00 0.00 78 1024.2
20221203142043 14 123 0.0 1.0 0.00 0.00 0.00 78 1024.2
20221203141548 14 123 0.0 1.0 0.00 0.00 0.00 78 1024.3
20221203141036 14 106 0.0 0.0 0.00 0.00 0.00 78 1024.4
20221203140548 14 106 0.0 0.0 0.00 0.00 0.00 77 1024.3
20221203140036 14 106 0.0 0.0 0.00 0.00 0.00 77 1024.2
20221203135547 14 106 0.0 0.0 0.00 0.00 0.00 78 1024.2
20221203135037 14 106 0.0 0.0 0.00 0.00 0.00 78 1024.2
20221203134533 14 106 0.0 1.0 0.00 0.00 0.00 78 1024.2
20221203134041 14 106 0.0 1.0 0.00 0.00 0.00 78 1024.3
20221203133531 14 106 0.0 1.0 0.00 0.00 0.00 78 1024.1
20221203133036 14 106 0.0 1.0 0.00 0.00 0.00 77 1024.0
20221203132540 14 106 0.0 1.0 0.00 0.00 0.00 77 1023.8
20221203132031 14 106 0.0 1.0 0.00 0.00 0.00 77 1023.8
20221203131558 14 106 0.0 1.0 0.00 0.00 0.00 77 1023.9
20221203131045 14 106 0.0 1.0 0.00 0.00 0.00 77 1023.8
20221203130535 15 106 0.0 0.0 0.00 0.00 0.00 77 1023.9
20221203130044 15 106 0.0 0.0 0.00 0.00 0.00 77 1023.6
20221203125532 15 106 0.0 0.0 0.00 0.00 0.00 76 1023.6
20221203125043 15 106 0.0 0.0 0.00 0.00 0.00 75 1023.6
20221203124530 15 106 0.0 0.0 0.00 0.00 0.00 75 1023.7
20221203124038 15 106 0.0 0.0 0.00 0.00 0.00 75 1023.8
20221203123546 15 106 0.0 0.0 0.00 0.00 0.00 75 1023.8
20221203123034 15 106 0.0 0.0 0.00 0.00 0.00 75 1023.7
20221203122527 15 106 0.0 0.0 0.00 0.00 0.00 75 1023.5
20221203122035 15 106 0.0 0.0 0.00 0.00 0.00 75 1023.5
20221203121603 15 106 0.0 0.0 0.00 0.00 0.00 75 1023.5
20221203121028 15 106 0.0 0.0 0.00 0.00 0.00 75 1023.4
20221203120532 15 106 0.0 1.0 0.00 0.00 0.00 75 1023.3
20221203120040 15 106 0.0 1.0 0.00 0.00 0.00 74 1023.2
20221203115527 15 106 0.0 1.0 0.00 0.00 0.00 74 1023.1
20221203115035 16 106 0.0 0.0 0.00 0.00 0.00 74 1023.2
20221203114545 16 106 0.0 0.0 0.00 0.00 0.00 73 1023.2
20221203114036 16 106 0.0 0.0 0.00 0.00 0.00 73 1023.1
20221203113544 16 106 0.0 0.0 0.00 0.00 0.00 73 1023.0
20221203113045 16 106 0.0 0.0 0.00 0.00 0.00 73 1023.0
20221203112532 16 106 0.0 1.0 0.00 0.00 0.00 72 1022.9
20221203112044 16 106 0.0 1.0 0.00 0.00 0.00 72 1023.0
20221203111530 16 106 0.0 2.0 0.00 0.00 0.00 72 1023.0
20221203111039 16 106 0.0 2.0 0.00 0.00 0.00 72 1022.9
20221203110545 16 106 0.0 1.0 0.00 0.00 0.00 72 1022.9
20221203110029 17 106 0.0 1.0 0.00 0.00 0.00 72 1023.0
20221203105539 17 106 0.0 1.0 0.00 0.00 0.00 71 1023.0
20221203105032 17 106 0.0 1.0 0.00 0.00 0.00 71 1023.1
20221203104539 17 106 0.0 1.0 0.00 0.00 0.00 71 1023.0
20221203104029 17 104 0.0 0.0 0.00 0.00 0.00 70 1023.0
20221203103535 17 104 0.0 0.0 0.00 0.00 0.00 70 1022.8
20221203103046 17 104 0.0 0.0 0.00 0.00 0.00 70 1022.8
20221203102536 17 104 0.0 0.0 0.00 0.00 0.00 70 1023.1
20221203102030 17 104 0.0 2.0 0.00 0.00 0.00 70 1023.0
20221203101554 17 104 0.0 2.0 0.00 0.00 0.00 69 1023.0
20221203101101 17 221 0.0 4.0 0.00 0.00 0.00 69 1022.9
20221203100532 18 146 0.0 4.0 0.00 0.00 0.00 69 1023.0
20221203100032 18 77 2.0 3.0 0.00 0.00 0.00 68 1023.0
20221203095558 18 77 1.0 3.0 0.00 0.00 0.00 67 1022.7
20221203095043 18 77 0.0 1.0 0.00 0.00 0.00 67 1022.7
20221203094528 18 77 0.0 0.0 0.00 0.00 0.00 67 1022.7
20221203094033 18 77 0.0 1.0 0.00 0.00 0.00 66 1022.8
20221203093555 19 77 0.0 1.0 0.00 0.00 0.00 66 1022.8
20221203093031 19 77 0.0 0.0 0.00 0.00 0.00 65 1022.7
20221203092546 19 77 0.0 0.0 0.00 0.00 0.00 65 1022.7
20221203092035 19 77 0.0 0.0 0.00 0.00 0.00 65 1022.5
20221203091536 19 77 0.0 0.0 0.00 0.00 0.00 65 1022.6
20221203091040 19 77 0.0 1.0 0.00 0.00 0.00 65 1022.6
20221203090543 20 77 0.0 1.0 0.00 0.00 0.00 64 1022.6
20221203090044 20 77 0.0 0.0 0.00 0.00 0.00 63 1022.7
20221203085538 20 77 0.0 0.0 0.00 0.00 0.00 62 1022.6
20221203085101 20 77 0.0 0.0 0.00 0.00 0.00 62 1022.6
20221203084602 20 77 0.0 0.0 0.00 0.00 0.00 61 1022.6
20221203084027 21 77 0.0 0.0 0.00 0.00 0.00 59 1022.5
20221203083545 21 77 0.0 0.0 0.00 0.00 0.00 59 1022.7
20221203083034 21 77 0.0 0.0 0.00 0.00 0.00 59 1022.6
20221203082530 21 77 0.0 0.0 0.00 0.00 0.00 59 1022.5
20221203082035 21 77 0.0 0.0 0.00 0.00 0.00 58 1022.5
20221203081541 21 77 0.0 0.0 0.00 0.00 0.00 58 1022.5
20221203081038 22 77 0.0 0.0 0.00 0.00 0.00 58 1022.5
20221203080546 22 77 0.0 0.0 0.00 0.00 0.00 58 1022.6
20221203080033 22 77 0.0 0.0 0.00 0.00 0.00 57 1022.5
20221203075539 22 77 0.0 0.0 0.00 0.00 0.00 57 1022.5
20221203075028 22 77 0.0 0.0 0.00 0.00 0.00 57 1022.5
20221203074537 22 77 0.0 1.0 0.00 0.00 0.00 57 1022.4
20221203074039 22 77 0.0 1.0 0.00 0.00 0.00 56 1022.6
20221203073547 22 77 0.0 1.0 0.00 0.00 0.00 56 1022.6
20221203073053 23 77 0.0 0.0 0.00 0.00 0.00 54 1022.7
20221203072549 23 77 0.0 0.0 0.00 0.00 0.00 54 1022.7
20221203072035 23 77 0.0 0.0 0.00 0.00 0.00 54 1022.6
20221203071544 23 77 0.0 0.0 0.00 0.00 0.00 54 1022.6
20221203071034 23 77 0.0 0.0 0.00 0.00 0.00 54 1022.5
20221203070545 23 77 0.0 0.0 0.00 0.00 0.00 53 1022.5
20221203070114 23 77 0.0 0.0 0.00 0.00 0.00 53 1022.5
20221203065552 24 77 0.0 0.0 0.00 0.00 0.00 53 1022.6
20221203065041 24 77 0.0 0.0 0.00 0.00 0.00 52 1022.5
20221203064529 24 77 0.0 0.0 0.00 0.00 0.00 52 1022.5
20221203064036 24 77 0.0 1.0 0.00 0.00 0.00 50 1022.4
20221203063607 24 77 0.0 1.0 0.00 0.00 0.00 50 1022.6
20221203063036 24 77 0.0 0.0 0.00 0.00 0.00 49 1022.5
20221203062527 25 77 0.0 0.0 0.00 0.00 0.00 50 1022.5
20221203062039 25 77 0.0 0.0 0.00 0.00 0.00 49 1022.5
20221203061528 25 77 0.0 0.0 0.00 0.00 0.00 48 1022.6
20221203061053 25 77 0.0 1.0 0.00 0.00 0.00 49 1022.5
20221203060535 25 77 0.0 1.0 0.00 0.00 0.00 48 1022.5
20221203060045 25 77 0.0 1.0 0.00 0.00 0.00 47 1022.4
20221203055534 25 77 0.0 0.0 0.00 0.00 0.00 46 1022.3
20221203055045 26 77 0.0 2.0 0.00 0.00 0.00 46 1022.3
20221203054535 26 77 0.0 2.0 0.00 0.00 0.00 45 1022.1
20221203054045 26 75 0.0 2.0 0.00 0.00 0.00 45 1022.2
20221203053537 26 75 0.0 4.0 0.00 0.00 0.00 45 1022.0
20221203053042 26 103 1.0 4.0 0.00 0.00 0.00 45 1022.0
20221203052531 26 105 0.0 2.0 0.00 0.00 0.00 45 1021.9
20221203052039 27 116 1.0 2.0 0.00 0.00 0.00 44 1021.9
20221203051529 27 94 0.0 2.0 0.00 0.00 0.00 44 1021.8
20221203051100 27 94 0.0 2.0 0.00 0.00 0.00 44 1021.7
20221203050539 27 92 0.0 1.0 0.00 0.00 0.00 44 1021.8
20221203050043 27 92 0.0 1.0 0.00 0.00 0.00 44 1021.7
20221203045531 28 92 0.0 5.0 0.00 0.00 0.00 44 1021.6
20221203045036 28 91 2.0 5.0 0.00 0.00 0.00 44 1021.6
20221203044531 28 102 1.0 4.0 0.00 0.00 0.00 44 1021.6
20221203044100 28 88 0.0 5.0 0.00 0.00 0.00 44 1021.5
20221203043547 28 88 2.0 5.0 0.00 0.00 0.00 45 1021.4
20221203043053 28 95 1.0 5.0 0.00 0.00 0.00 45 1021.2
20221203042535 28 84 2.0 5.0 0.00 0.00 0.00 46 1021.4
20221203042028 29 81 2.0 5.0 0.00 0.00 0.00 46 1021.3
20221203041540 29 92 1.0 5.0 0.00 0.00 0.00 48 1021.2
20221203041030 29 98 1.0 5.0 0.00 0.00 0.00 48 1021.1
20221203040544 29 83 0.0 1.0 0.00 0.00 0.00 50 1021.1
20221203040036 29 83 0.0 0.0 0.00 0.00 0.00 49 1021.1
20221203035530 29 83 0.0 0.0 0.00 0.00 0.00 50 1021.1
20221203035044 30 83 0.0 0.0 0.00 0.00 0.00 49 1021.1
20221203034541 30 83 0.0 0.0 0.00 0.00 0.00 49 1021.0
20221203034034 30 83 0.0 0.0 0.00 0.00 0.00 48 1020.9
20221203033527 30 83 0.0 0.0 0.00 0.00 0.00 48 1020.9
20221203033041 31 83 0.0 0.0 0.00 0.00 0.00 48 1020.9
20221203032530 31 83 0.0 0.0 0.00 0.00 0.00 47 1020.9
20221203032040 31 83 0.0 0.0 0.00 0.00 0.00 47 1020.9
20221203031533 31 83 0.0 0.0 0.00 0.00 0.00 46 1020.7
20221203031026 32 83 0.0 1.0 0.00 0.00 0.00 45 1020.6
20221203030541 32 83 0.0 1.0 0.00 0.00 0.00 45 1020.6
20221203030033 32 83 0.0 0.0 0.00 0.00 0.00 46 1020.6
20221203025533 32 83 0.0 0.0 0.00 0.00 0.00 45 1020.5
20221203025027 33 83 0.0 0.0 0.00 0.00 0.00 45 1020.5
20221203024539 33 83 0.0 0.0 0.00 0.00 0.00 45 1020.6
20221203024032 33 83 0.0 0.0 0.00 0.00 0.00 44 1020.5
20221203023544 33 83 0.0 0.0 0.00 0.00 0.00 44 1020.5
20221203023034 34 83 0.0 0.0 0.00 0.00 0.00 43 1020.4
20221203022546 34 83 0.0 1.0 0.00 0.00 0.00 43 1020.3
20221203022033 34 83 0.0 1.0 0.00 0.00 0.00 42 1020.2
20221203021541 34 83 0.0 2.0 0.00 0.00 0.00 42 1020.3
20221203021032 35 83 0.0 2.0 0.00 0.00 0.00 42 1020.1
20221203020544 35 92 0.0 2.0 0.00 0.00 0.00 41 1020.0
20221203020032 35 54 1.0 2.0 0.00 0.00 0.00 41 1019.8
20221203015544 36 56 0.0 5.0 0.00 0.00 0.00 41 1019.7
20221203015038 36 51 0.0 5.0 0.00 0.00 0.00 40 1019.7
20221203014528 36 96 2.0 7.0 0.00 0.00 0.00 40 1019.6
20221203014039 37 73 3.0 7.0 0.00 0.00 0.00 39 1019.3
20221203013556 37 96 3.0 7.0 0.00 0.00 0.00 39 1019.0
20221203013045 38 81 3.0 7.0 0.00 0.00 0.00 39 1019.0
20221203012536 38 76 2.0 6.0 0.00 0.00 0.00 40 1018.8
20221203012049 38 79 0.0 4.0 0.00 0.00 0.00 40 1018.7
20221203011539 39 70 0.0 2.0 0.00 0.00 0.00 40 1018.5
20221203011032 39 70 0.0 2.0 0.00 0.00 0.00 40 1018.4